Regional Weather Roundup
Issued by NWS

Home | Current Version | Previous Version | Graphics & Text | Print | Product List | Glossary On
Versions: 1 2 3 4 5 6 7 8 9 10 11 12 13 14 15 16 17 18 19 20 21 22 23 24 25 26 27 28 29 30 31 32 33 34 35 36 37 38 39 40 41 42 43 44 45 46 47 48 49 50
000
ASUS43 KMPX 220110
RWRMN
WEATHER ROUNDUP FOR MINNESOTA
NATIONAL WEATHER SERVICE TWIN CITIES/CHANHASSEN MN
800 PM CDT THU AUG 21 2014


NOTE: "FAIR" INDICATES FEW OR NO CLOUDS BELOW 12,000 FEET WITH NO
SIGNIFICANT WEATHER AND/OR OBSTRUCTIONS TO VISIBILITY. N/A MEANS
CURRENT SKY AND/OR WEATHER CONDITIONS ARE NOT AVAILABLE.

MNZ060>063-068>070-220200-
   Twin Cities Metro

CITY           SKY/WX    TMP DP  RH WIND       PRES   REMARKS
TWIN CITIES    PTCLDY    84  74  71 NE3       29.80S HX  91
ST PAUL        PTCLDY    80  74  81 CALM      29.80R
CRYSTAL        PTCLDY    79  72  79 N6        29.79S
BLAINE         MOCLDY    79  75  89 N5        29.81S
LAKEVILLE      PTCLDY    75  73  94 CALM      29.81R
EDEN PRAIRIE   CLOUDY    82  75  79 CALM      29.79R
SOUTH ST PAUL  PTCLDY    82  73  76 CALM      29.80S
LAKE ELMO      FAIR      77  73  88 NE5       29.82S
$$
MNZ001>005-007-008-013>017-022>024-027-028-220200-
   Northwest Minnesota

CITY           SKY/WX    TMP DP  RH WIND       PRES   REMARKS
BEMIDJI        CLOUDY    69  66  90 SE6       29.87S
HALLOCK        MOCLDY    72  66  83 E6        29.86R
ROSEAU         PTCLDY    70  64  83 E6        29.89R
WARROAD        CLOUDY    66  63  88 E6        29.89S
THIEF RVR FALL CLOUDY    73  66  78 SE5       29.86R
CROOKSTON      CLOUDY    75  70  83 CALM      29.85R
FOSSTON        MOCLDY    70  64  83 CALM      29.87R
DETROIT LAKES  DRIZZLE   70  68  94 CALM      29.88R
MOORHEAD       PTCLDY    75  73  94 CALM      29.84S
PARK RAPIDS    CLOUDY    70  67  90 SE5       29.87R
MAHNOMEN       CLOUDY    71  67  88 SE3       29.86R
$$
MNZ006-009>011-018-025>026-220200-
   North Central Minnesota

CITY           SKY/WX    TMP DP  RH WIND       PRES   REMARKS
BAUDETTE       MOCLDY    67  63  87 E9        29.89R
FLAG ISLAND    CLOUDY    66  63  88 CALM      29.90R
INTL FALLS     CLOUDY    66  62  87 E9        29.90S
WASKISH        CLOUDY    72  66  83 CALM      29.88R
BIG FORK       CLOUDY    70  64  83 SE3       29.90R
LONGVILLE      CLOUDY    66  66 100 CALM      29.89R
GRAND RAPIDS   CLOUDY    66  63  88 CALM      29.90R
CRANE LAKE     CLOUDY    63  61  94 CALM      29.94R
ORR            CLOUDY    64  57  77 CALM      29.89S
COOK           CLOUDY    66  61  82 CALM      29.92R
WALKER         CLOUDY    68  65  90 E3        29.88S
$$
MNZ012-019>021-037-220200-
   Northeast Minnesota

CITY           SKY/WX    TMP DP  RH WIND       PRES   REMARKS
DULUTH         CLOUDY    63  60  90 E8        29.90S
ELY            CLOUDY    63  59  88 CALM      29.93S
HIBBING        CLOUDY    68  61  78 SE6       29.90S
EVELETH        CLOUDY    64  59  82 SE6       29.91S
DULUTH HARBOR  CLOUDY    63  61  94 NE18      29.89F
TWO HARBORS    CLOUDY    63  57  82 NE8       29.89S
SILVER BAY     MOCLDY    61  61 100 NE8       29.91S
GRAND MARAIS     N/A     62  60  93 E10       29.94R
G MARAIS ARPRT DRIZZLE   61  55  82 NE6       29.98S
$$
MNZ029>031-032-039>041-046>048-054>057-064-220200-
   West Central Minnesota

CITY           SKY/WX    TMP DP  RH WIND       PRES   REMARKS
FERGUS FALLS   PTCLDY    75  66  73 SE3       29.83S
WHEATON        CLEAR     75  68  78 CALM      29.85S
MORRIS         CLEAR     77  73  88 CALM      29.84R
ALEXANDRIA     CLOUDY    73  68  84 CALM      29.88R
ELBOW LAKE     FAIR      74  70  87 SE5       29.85R
WADENA         CLOUDY    70  68  94 CALM      29.87R
GLENWOOD       CLEAR     73  70  88 NE3       29.87R
APPLETON       CLEAR     81  72  74 CALM      29.83R
BENSON         CLEAR     77  72  83 E3        29.84S
ORTONVILLE     CLEAR     79  72  78 N3        29.84S
MADISON        CLEAR     81  72  74 N3        29.84R
WILLMAR        FAIR      79  72  78 NE3       29.85R
$$
MNZ033>034-036-042>043-049>051-058-059-220200-
   Central Minnesota

CITY           SKY/WX    TMP DP  RH WIND       PRES   REMARKS
ST CLOUD       CLOUDY    77  71  82 NE3       29.83R
SAUK CENTRE    CLOUDY    73  70  91 CALM      29.86R
PAYNESVILLE    PTCLDY    74  70  87 CALM      29.85R
AITKIN         CLOUDY    70  63  78 NE5       29.87R HAZE
PINE RIVER     CLOUDY    68  68 100 CALM      29.91R
BRAINERD       CLOUDY    68  66  93 NE6       29.87R
STAPLES        DRIZZLE   68  66  94 CALM      29.86S
LONG PRAIRIE   CLOUDY    70  68  94 CALM      29.87R
LITTLE FALLS   CLOUDY    72  68  88 CALM      29.86R
LITCHFIELD     CLEAR     79  75  89 CALM      29.84S
BUFFALO        CLEAR     76  71  83 N3        29.83S
MAPLE LAKE     CLEAR     76  73  90 CALM      29.84R
$$
MNZ037-044-045-052-053-220200-
   East Central Minnesota

CITY           SKY/WX    TMP DP  RH WIND       PRES   REMARKS
PRINCETON      CLOUDY    75  72  88 NE3       29.84R
MORA           CLOUDY    70  68  94 CALM      29.86R
CAMBRIDGE      PTCLDY    75  66  73 CALM      29.82R
RUSH CITY      CLOUDY    73  69  88 N3        29.84R
MOOSE LAKE     CLOUDY    61  59  94 NE7       29.86S
HINCKLEY       CLOUDY    72  72 100 N6        29.85R
CLOQUET        CLOUDY    63  61  94 E7        29.89S
MCGREGOR       CLOUDY    64  63  94 E5        29.89R
$$
MNZ071>073-080-081-089-090-097-098-220200-
   Southwest Minnesota

CITY           SKY/WX    TMP DP  RH WIND       PRES   REMARKS
MONTEVIDEO     MOCLDY    79  72  78 N5        29.84R
GRANITE FALLS  PTCLDY    78  73  83 NW5       29.84S
CANBY          CLEAR     79  68  69 CALM      29.85S
MARSHALL       CLEAR     79  68  69 N9        29.84R
REDWOOD FALLS  CLEAR     82  73  74 CALM      29.82R
OLIVIA         CLEAR     79  73  83 NE3       29.82S
PIPESTONE      CLEAR     79  70  73 N7        29.87S
WINDOM         PTCLDY    75  66  73 SE3       29.86R
WORTHINGTON    CLOUDY    82  21  10 NW6       29.87R
JACKSON        CLOUDY    72  66  83 N13G37    29.88R
TRACY          CLEAR     79  75  87 N3        29.85R
SLAYTON        CLEAR     79  72  78 CALM      29.88R
$$
MNZ065>067-074>077-082>085-091>093-220200-
   South Central Minnesota

CITY           SKY/WX    TMP DP  RH WIND       PRES   REMARKS
MANKATO        MOCLDY    81  72  74 CALM      29.81S
NEW ULM        PTCLDY    81  77  89 NW5       29.82R
ST JAMES       MOCLDY    81  72  74 W7        29.84R
FAIRMONT       MOCLDY    81  72  74 MISG      29.84R
GLENCOE        CLEAR     80  72  77 CALM      29.81S
FARIBAULT      MOCLDY    84  72  65 S3        29.82S
OWATONNA       MOCLDY    82  72  69 S6        29.84R
WASECA         MOCLDY    79  68  69 S8        29.85R
ALBERT LEA     MOCLDY    81  72  74 CALM      29.85R
$$
MNZ078>079-086>088-094>096-220200-
   Southeast Minnesota

CITY           SKY/WX    TMP DP  RH WIND       PRES   REMARKS
ROCHESTER      MOCLDY    79  72  79 S9        29.86S
RED WING       MOCLDY    81  73  78 SE7       29.81R
STANTON        MOCLDY    82  74  77 S3        29.80S
DODGE CENTER   MOCLDY    79  73  83 S6        29.85S
WINONA         CLOUDY    79  72  78 SE3       29.85S
AUSTIN         PTCLDY    81  72  74 S6        29.85R
PRESTON        PTCLDY    77  75  93 S7        29.88S
$$
ABBREVIATIONS USED IN REMARKS
   TC - TEMPERATURES IN CELSIUS
  WCI - WIND CHILL INDEX
   HX - HEAT INDEX
  VSB - VISIBILITY
$$



USA.gov is the U.S. government's official web portal to all federal, state and local government web resources and services.